Date,TemperatureHighF,TemperatureAvgF,TemperatureLowF,DewpointHighF,DewpointAvgF,DewpointLowF,HumidityHigh,HumidityAvg,HumidityLow,PressureMaxIn,PressureMinIn,WindSpeedMaxMPH,WindSpeedAvgMPH,GustSpeedMaxMPH,PrecipitationSumIn
2013-2-1,16,9,4,10,4,0,89,80,69,30.71,30.42,13,2,13,0.00
2013-2-2,22,15,9,11,6,2,83,69,59,30.42,30.03,11,1,11,0.00
2013-2-3,16,12,10,10,7,5,85,79,73,30.04,29.84,7,1,7,0.00
2013-2-4,16,12,9,12,9,6,90,87,84,30.18,29.99,5,0,5,0.00
2013-2-5,14,7,4,11,4,0,89,87,84,30.17,30.13,5,0,5,0.00
2013-2-6,8,4,2,4,0,-2,87,85,83,30.24,30.12,3,0,3,0.00
2013-2-7,12,7,-1,9,4,-4,89,86,83,30.24,29.84,5,0,5,0.00
2013-2-8,11,5,1,8,2,-3,89,86,82,30.36,29.87,5,0,5,0.00
2013-2-9,33,25,9,23,18,6,90,73,63,30.36,29.52,17,5,17,0.00
2013-2-10,37,27,10,27,20,7,90,75,65,29.96,29.43,14,3,14,0.02
2013-2-11,19,16,9,16,13,6,90,88,84,30.23,29.96,9,1,9,0.00
2013-2-12,15,12,8,12,9,5,90,88,85,30.32,30.23,5,0,5,0.00
2013-2-13,26,21,15,16,13,10,85,70,61,30.32,30.26,9,2,9,0.00
2013-2-14,29,26,23,15,12,10,71,56,47,30.26,29.82,17,4,17,0.00
2013-2-15,23,8,-4,18,3,-8,92,81,73,30.57,29.92,21,2,21,0.00
2013-2-16,3,-3,-8,-2,-7,-12,92,80,74,30.66,30.45,7,1,7,0.00
2013-2-17,1,-5,-10,-5,-10,-15,81,78,74,30.73,30.38,15,2,15,0.00
2013-2-18,-10,-14,-18,-15,-20,-23,80,77,73,30.85,30.73,10,1,10,0.00
2013-2-19,-2,-10,-19,-11,-18,-25,78,70,62,30.74,30.17,17,3,18,0.00
2013-2-20,5,-2,-8,-5,-10,-14,79,68,59,30.17,29.94,20,4,20,0.00
2013-2-21,0,-3,-6,-7,-9,-11,80,75,65,29.99,29.90,16,2,16,0.00
2013-2-22,-5,-8,-13,-11,-14,-18,90,78,73,30.19,29.93,5,1,5,0.00
2013-2-23,4,-3,-11,-4,-9,-17,80,74,66,30.12,29.88,9,1,9,0.00
2013-2-24,7,0,-4,-1,-5,-9,84,76,64,30.25,29.91,5,1,5,0.00
2013-2-25,28,14,0,15,6,-4,87,72,53,30.29,30.24,7,1,7,0.00
2013-2-26,27,21,14,11,8,4,70,58,47,30.28,29.97,14,3,14,0.00
2013-2-27,30,25,20,15,11,8,62,55,50,29.97,29.81,15,5,15,0.00
2013-2-28,33,25,18,14,10,8,66,53,41,29.95,29.85,8,1,8,0.02